Weather reports worldwide

Advertisment
Farnborough, United Kingdom (3768): temperature & dewpoint: 10.09.2019 16:00:00 - 16.09.2019 16:00:00 (BST)Farnborough, United Kingdom (3768): temperature -100cm: 10.09.2019 16:00:00 - 16.09.2019 16:00:00 (BST)Farnborough, United Kingdom (3768): wind speed: 10.09.2019 16:00:00 - 16.09.2019 16:00:00 (BST)Farnborough, United Kingdom (3768): wind direction: 10.09.2019 16:00:00 - 16.09.2019 16:00:00 (BST)Farnborough, United Kingdom (3768): reduced air pressure: 10.09.2019 16:00:00 - 16.09.2019 16:00:00 (BST)Farnborough, United Kingdom (3768): visibility: 10.09.2019 16:00:00 - 16.09.2019 16:00:00 (BST)Farnborough, United Kingdom (3768): precipitation: 10.09.2019 16:00:00 - 16.09.2019 16:00:00 (BST)
Date & Time tt [°C] td [°C] tt -100cm [°C] ff [km/h] ff [kn] dd ppp [hPa] vv [km] rr [mm]
16.09.2019 16:00:00 19,0 15,0 - 13 7 N 1021,7 10 0,0
16.09.2019 15:00:00 19,8 15,4 - 9 5 NW 1021,6 10 0,0
16.09.2019 14:00:00 19,8 15,0 - 11 6 WNW 1021,7 10 0,0
16.09.2019 13:00:00 19,4 14,9 - 11 6 W 1021,9 40 0,0
16.09.2019 12:00:00 18,5 14,8 - 9 5 W 1022,2 30 0,0
16.09.2019 11:00:00 18,2 14,7 - 9 5 WNW 1022,2 10 0,0
16.09.2019 10:00:00 16,9 14,5 15,7 9 5 W 1022,2 10 0,0
16.09.2019 09:00:00 15,9 14,3 - 8 4 NW 1021,9 10 0,0
16.09.2019 08:00:00 15,1 13,9 - 9 5 WSW 1021,7 10 0,0
16.09.2019 07:00:00 14,7 13,7 - 8 4 W 1021,3 10 0,0
16.09.2019 06:00:00 14,7 13,8 - 8 4 WSW 1021,3 10 0,0
16.09.2019 05:00:00 14,8 13,9 - 9 5 W 1021,7 7 0,0
16.09.2019 04:00:00 14,7 14,0 - 9 5 WNW 1021,9 7 0,0
16.09.2019 03:00:00 14,6 14,0 - 8 4 W 1022,3 5 0,0
16.09.2019 02:00:00 14,3 13,5 - 8 4 WSW 1022,6 8 0,0
16.09.2019 01:00:00 15,2 14,0 - 11 6 WSW 1022,7 10 0,0
16.09.2019 00:00:00 15,6 13,9 - 9 5 W 1022,8 26 0,0
15.09.2019 23:00:00 15,4 14,3 - 8 4 WSW 1023,0 29 0,0
15.09.2019 22:00:00 15,0 12,2 - 9 5 SW 1022,9 10 0,0
15.09.2019 21:00:00 17,3 13,7 - 9 5 WSW 1022,9 10 0,0
15.09.2019 20:00:00 18,2 13,6 - 8 4 SW 1022,7 10 0,0
15.09.2019 19:00:00 22,0 13,6 - 5 3 WNW 1022,3 10 0,0
15.09.2019 18:00:00 23,7 13,6 - 13 7 WNW 1022,2 70 0,0
15.09.2019 17:00:00 24,4 13,6 - 13 7 NW 1022,5 10 0,0
15.09.2019 16:00:00 24,8 13,6 - 11 6 W 1022,9 10 0,0
15.09.2019 15:00:00 24,9 13,5 - 13 7 W 1023,2 10 0,0
15.09.2019 14:00:00 23,8 13,2 - 8 4 - 1024,1 10 0,0
15.09.2019 13:00:00 22,7 13,4 - 8 4 - 1024,7 10 0,0
15.09.2019 12:00:00 21,5 13,5 - 8 4 - 1025,2 10 0,0
15.09.2019 11:00:00 19,3 11,7 - 9 5 WNW 1025,6 75 0,0
15.09.2019 10:00:00 16,5 11,3 15,9 9 5 W 1025,6 10 0,0
15.09.2019 09:00:00 12,8 12,3 - 5 3 WNW 1025,9 20 0,0
15.09.2019 08:00:00 8,0 7,6 - 2 1 - 1026,0 10 0,0
15.09.2019 07:00:00 6,4 6,0 - 2 1 - 1026,0 10 0,0
15.09.2019 06:00:00 6,8 6,5 - 2 1 SSW 1025,7 10 0,0
15.09.2019 05:00:00 7,1 6,7 - 2 1 - 1025,8 10 0,0
15.09.2019 04:00:00 7,6 7,2 - 0 0 N 1026,3 10 0,0
15.09.2019 03:00:00 7,5 6,7 - 2 1 N 1026,7 30 0,0
15.09.2019 02:00:00 8,5 7,7 - 4 2 SSW 1027,2 10 0,0
15.09.2019 01:00:00 9,2 8,4 - 0 0 N 1027,7 10 0,0
15.09.2019 00:00:00 9,8 8,7 - 2 1 - 1027,8 10 0,0
14.09.2019 23:00:00 10,7 9,1 - 0 0 N 1028,3 35 0,0
14.09.2019 22:00:00 11,1 8,5 - 4 2 - 1028,4 10 0,0
14.09.2019 21:00:00 13,5 8,3 - 4 2 S 1028,7 10 0,0
14.09.2019 20:00:00 16,0 9,0 - 4 2 WSW 1028,9 50 0,0
14.09.2019 19:00:00 20,2 6,8 - 5 3 SSE 1028,4 10 0,0
14.09.2019 18:00:00 21,9 7,0 - 4 2 SSW 1028,7 55 0,0
14.09.2019 17:00:00 22,1 5,1 - 5 3 SSW 1029,1 55 0,0
14.09.2019 16:00:00 22,1 5,8 - 4 2 - 1029,8 10 0,0
14.09.2019 15:00:00 21,9 7,1 - 4 2 NW 1030,6 45 0,0
14.09.2019 14:00:00 20,7 7,4 - 8 4 NE 1031,6 10 0,0
14.09.2019 13:00:00 19,7 7,6 - 5 3 - 1032,4 10 0,0
14.09.2019 12:00:00 18,9 9,6 - 5 3 - 1033,2 10 0,0
14.09.2019 11:00:00 17,0 9,7 - 9 5 ESE 1033,6 10 0,0
14.09.2019 10:00:00 14,9 11,0 15,7 4 2 - 1034,1 10 0,0
14.09.2019 09:00:00 10,7 10,3 - 4 2 N 1034,7 10 0,0
14.09.2019 08:00:00 7,1 7,1 - 4 2 SSW 1034,8 10 0,0
14.09.2019 07:00:00 4,8 4,8 - 5 3 SW 1035,0 1,0 0,0
14.09.2019 06:00:00 5,5 5,2 - 4 2 SW 1035,0 10 0,0
14.09.2019 05:00:00 5,9 5,6 - 2 1 SW 1035,1 10 0,0
14.09.2019 04:00:00 6,2 5,9 - 4 2 WSW 1035,5 10 0,0
14.09.2019 03:00:00 7,2 6,8 - 5 3 SSW 1036,0 10 0,0
14.09.2019 02:00:00 8,0 7,5 - 5 3 SSW 1035,7 10 0,0
14.09.2019 01:00:00 10,3 8,7 - 2 1 W 1035,9 10 0,0
14.09.2019 00:00:00 11,2 8,5 - 9 5 E 1036,0 10 0,0
13.09.2019 23:00:00 13,0 8,1 - 15 8 E 1036,1 10 0,0
13.09.2019 22:00:00 14,8 4,6 - 8 4 NE 1035,6 10 0,0
13.09.2019 21:00:00 15,1 3,6 - 9 5 NNE 1035,5 10 0,0
13.09.2019 20:00:00 16,9 4,1 - 11 6 NNE 1034,9 10 0,0
13.09.2019 19:00:00 18,9 4,1 - 11 6 NNE 1034,6 10 0,0
13.09.2019 18:00:00 20,2 5,1 - 13 7 NE 1034,4 55 0,0
13.09.2019 17:00:00 20,9 5,6 - 11 6 NNE 1034,4 10 0,0
13.09.2019 16:00:00 20,5 5,2 - 15 8 ENE 1034,4 10 0,0
13.09.2019 15:00:00 20,2 5,5 - 13 7 N 1034,7 10 0,0
13.09.2019 14:00:00 19,9 7,2 - 15 8 NNE 1034,6 10 0,0
13.09.2019 13:00:00 18,7 8,7 - 11 6 NNE 1035,0 10 0,0
13.09.2019 12:00:00 17,5 8,4 - 13 7 NNE 1035,1 70 0,0
13.09.2019 11:00:00 16,8 8,6 - 16 9 NE 1035,1 10 0,0
13.09.2019 10:00:00 15,6 9,2 15,7 16 9 N 1035,1 10 0,0
13.09.2019 09:00:00 14,0 9,6 - 15 8 N 1034,4 10 0,0
13.09.2019 08:00:00 12,5 9,2 - 9 5 NNW 1034,0 10 0,0
13.09.2019 07:00:00 13,0 9,0 - 9 5 N 1033,4 10 0,0
13.09.2019 06:00:00 14,0 11,0 - 11 6 NW 1032,7 10 0,0
13.09.2019 05:00:00 14,8 13,1 - 11 6 NNW 1031,6 10 0,0
13.09.2019 04:00:00 15,7 14,6 - 16 9 NNW 1031,0 10 0,4
13.09.2019 03:00:00 16,3 15,7 - 9 5 WSW 1030,3 4,6 0,0
13.09.2019 02:00:00 17,0 15,3 - 11 6 WSW 1030,1 10 0,0
13.09.2019 01:00:00 17,1 15,1 - 11 6 WSW 1029,9 10 0,0
13.09.2019 00:00:00 17,2 15,0 - 15 8 WSW 1029,5 10 0,0
12.09.2019 23:00:00 17,3 14,9 - 21 11 SW 1029,4 10 0,0
12.09.2019 22:00:00 17,6 14,9 - 18 10 SW 1029,2 10 0,0
12.09.2019 21:00:00 17,9 15,3 - 18 10 SW 1028,8 10 0,0
12.09.2019 20:00:00 17,7 15,4 - 18 10 SSW 1028,2 10 0,0
12.09.2019 19:00:00 18,5 15,6 - 22 12 SW 1027,8 10 0,0
12.09.2019 18:00:00 19,6 15,8 - 24 13 SW 1027,6 35 0,0
12.09.2019 17:00:00 20,9 15,8 - 21 11 SSW 1027,2 10 0,0
12.09.2019 16:00:00 21,5 15,2 - 26 14 SW 1027,3 10 0,0
12.09.2019 15:00:00 21,9 15,1 - 26 14 SW 1027,6 10 0,0
12.09.2019 14:00:00 23,1 15,1 - 24 13 WSW 1027,4 10 0,0
12.09.2019 13:00:00 22,0 15,0 - 28 15 SW - 10 0,0
12.09.2019 12:00:00 21,5 15,6 - 28 15 WSW 1028,0 10 0,0
12.09.2019 11:00:00 19,5 16,6 - 15 8 WSW 1028,0 10 0,0
12.09.2019 10:00:00 17,8 15,8 15,7 24 13 WSW 1027,8 10 0,0
12.09.2019 09:00:00 17,3 15,5 - 16 9 WSW 1027,1 10 0,0
12.09.2019 08:00:00 15,2 14,0 - 11 6 WSW 1027,1 10 0,0
12.09.2019 07:00:00 12,8 12,3 - 8 4 SW 1026,7 10 0,0
12.09.2019 06:00:00 12,0 11,1 - 9 5 SW 1026,0 10 0,0
12.09.2019 05:00:00 13,0 12,1 - 11 6 WSW 1025,9 10 0,0
12.09.2019 04:00:00 11,9 11,4 - 11 6 WSW 1025,7 10 0,0
12.09.2019 03:00:00 13,1 12,3 - 11 6 WSW 1025,3 10 0,0
12.09.2019 02:00:00 13,9 13,0 - 13 7 WSW 1024,9 10 0,0
12.09.2019 01:00:00 12,6 11,5 - 9 5 SW 1024,6 10 0,0
12.09.2019 00:00:00 14,3 13,0 - 11 6 SW 1024,2 35 0,0
11.09.2019 23:00:00 15,7 14,1 - 13 7 WSW 1023,8 10 0,0
11.09.2019 22:00:00 16,1 14,5 - 16 9 WSW 1023,5 10 0,0
11.09.2019 21:00:00 17,2 15,6 - 18 10 WSW 1022,6 10 0,0
11.09.2019 20:00:00 17,7 16,2 - 16 9 WSW 1021,9 10 0,0
11.09.2019 19:00:00 18,6 16,6 - 18 10 WSW 1021,3 10 0,0
11.09.2019 18:00:00 18,7 17,1 - 18 10 WSW 1020,8 10 0,0
11.09.2019 17:00:00 18,2 17,3 - 15 8 W 1020,7 7 0,4
11.09.2019 16:00:00 19,3 16,7 - 24 13 WSW 1020,2 10 0,0
11.09.2019 15:00:00 19,5 16,1 - 26 14 WSW 1020,0 10 0,0
11.09.2019 14:00:00 19,0 16,2 - 28 15 SW 1019,9 10 0,0
11.09.2019 13:00:00 19,6 15,7 - 29 16 SW 1019,7 10 0,0
11.09.2019 12:00:00 19,3 15,1 - 28 15 WSW 1019,7 10 0,0
11.09.2019 11:00:00 19,5 15,4 - 29 16 WSW 1019,5 10 0,0
11.09.2019 10:00:00 17,6 14,8 15,9 29 16 SW 1019,4 10 0,0
11.09.2019 09:00:00 15,8 13,6 - 24 13 SW 1019,2 10 0,0
11.09.2019 08:00:00 14,5 12,1 - 22 12 SW 1018,9 10 0,0
11.09.2019 07:00:00 13,9 10,9 - 24 13 SW 1019,1 10 0,0
11.09.2019 06:00:00 13,2 10,1 - 13 7 SW 1019,2 30 0,0
11.09.2019 05:00:00 13,3 9,4 - 18 10 SW 1019,7 10 0,0
11.09.2019 04:00:00 13,1 8,9 - 18 10 SW 1019,9 30 0,0
11.09.2019 03:00:00 13,0 9,0 - 16 9 SSW 1020,2 10 0,0
11.09.2019 02:00:00 13,0 9,0 - 13 7 SW 1020,9 30 0,0
11.09.2019 01:00:00 12,8 9,2 - 11 6 SW 1020,9 10 0,0
11.09.2019 00:00:00 13,3 9,2 - 15 8 WSW 1021,1 10 0,0
10.09.2019 23:00:00 13,7 9,2 - 11 6 WSW 1021,3 10 0,0
10.09.2019 22:00:00 13,6 10,2 - 13 7 WSW 1021,2 10 0,0
10.09.2019 21:00:00 13,0 10,1 - 9 5 WSW 1020,8 10 0,0
10.09.2019 20:00:00 15,5 10,7 - 8 4 SW 1020,5 10 0,0
10.09.2019 19:00:00 17,1 10,7 - 9 5 W 1020,2 10 0,0
10.09.2019 18:00:00 17,5 10,9 - 9 5 WNW 1019,9 35 0,0
10.09.2019 17:00:00 18,1 11,1 - 11 6 WNW 1020,1 10 0,0
10.09.2019 16:00:00 17,4 11,4 - 13 7 WNW 1020,3 10 0,0

tt = temperature
td = dewpoint
tt -100cm = temperature -100cm
ff = wind speed
dd = wind direction
ppp = reduced air pressure
vv = visibility
rr = precipitation

Next stations